TimeEST,TemperatureF,Dew PointF,Humidity,Sea Level PressureIn,VisibilityMPH,Wind Direction,Wind SpeedMPH,Gust SpeedMPH,PrecipitationIn,Events,Conditions,WindDirDegrees,DateUTC
12:15 AM,40.8,40.1,97,30.19,7.0,Calm,Calm,-,N/A,,Overcast,0,2013-02-11 05:15:00
12:35 AM,41.4,39.7,94,30.16,10.0,Calm,Calm,-,N/A,,Overcast,0,2013-02-11 05:35:00
12:55 AM,41.2,40.1,96,30.16,10.0,Calm,Calm,-,N/A,,Overcast,0,2013-02-11 05:55:00
1:15 AM,41.4,40.5,97,30.16,10.0,Calm,Calm,-,N/A,,Overcast,0,2013-02-11 06:15:00
1:35 AM,41.4,40.3,96,30.16,10.0,Calm,Calm,-,N/A,Rain,Rain,0,2013-02-11 06:35:00
1:55 AM,41.4,39.7,94,30.16,7.0,Calm,Calm,-,N/A,,Drizzle,0,2013-02-11 06:55:00
2:15 AM,41.2,39.6,94,30.16,10.0,Calm,Calm,-,N/A,,Drizzle,0,2013-02-11 07:15:00
2:35 AM,41.0,40.1,97,30.16,5.0,Calm,Calm,-,N/A,,Drizzle,0,2013-02-11 07:35:00
2:55 AM,41.0,40.3,97,30.14,5.0,Calm,Calm,-,N/A,,Overcast,0,2013-02-11 07:55:00
3:15 AM,40.6,40.1,98,30.12,7.0,Calm,Calm,-,N/A,,Overcast,0,2013-02-11 08:15:00
3:35 AM,40.5,40.1,99,30.11,7.0,Calm,Calm,-,N/A,,Overcast,0,2013-02-11 08:35:00
3:55 AM,40.3,40.1,99,30.11,5.0,Calm,Calm,-,N/A,,Drizzle,0,2013-02-11 08:55:00
4:15 AM,40.3,40.1,99,30.11,2.5,Calm,Calm,-,N/A,,Heavy Drizzle,0,2013-02-11 09:15:00
4:35 AM,40.3,40.1,99,30.11,2.0,Calm,Calm,-,0.01,,Heavy Drizzle,0,2013-02-11 09:35:00
4:55 AM,40.5,40.3,99,30.11,3.0,Calm,Calm,-,0.01,,Heavy Drizzle,0,2013-02-11 09:55:00
5:15 AM,40.5,40.3,99,30.10,3.0,Calm,Calm,-,N/A,Rain,Light Rain,0,2013-02-11 10:15:00
5:35 AM,40.6,40.6,100,30.11,2.0,Calm,Calm,-,N/A,,Heavy Drizzle,0,2013-02-11 10:35:00
5:55 AM,40.8,40.6,99,30.09,2.0,Calm,Calm,-,0.01,Rain,Light Rain,0,2013-02-11 10:55:00
6:15 AM,41.0,40.8,99,30.10,2.5,Calm,Calm,-,0.01,,Heavy Drizzle,0,2013-02-11 11:15:00
6:35 AM,41.0,41.0,100,30.10,2.5,Calm,Calm,-,0.01,,Heavy Drizzle,0,2013-02-11 11:35:00
6:55 AM,41.0,41.0,100,30.09,3.0,Calm,Calm,-,0.01,Rain,Rain,0,2013-02-11 11:55:00
7:15 AM,41.0,41.0,100,30.06,2.5,Calm,Calm,-,N/A,Rain,Rain,0,2013-02-11 12:15:00
7:35 AM,41.0,41.0,100,30.06,3.0,Calm,Calm,-,N/A,,Overcast,0,2013-02-11 12:35:00
7:55 AM,41.0,41.0,100,30.06,3.0,Calm,Calm,-,N/A,,Overcast,0,2013-02-11 12:55:00
8:15 AM,41.4,41.4,100,30.08,2.0,Calm,Calm,-,N/A,,Overcast,0,2013-02-11 13:15:00
8:35 AM,41.9,41.9,100,30.07,2.5,Calm,Calm,-,N/A,,Overcast,0,2013-02-11 13:35:00
8:55 AM,41.9,41.9,100,30.06,3.0,Calm,Calm,-,N/A,,Overcast,0,2013-02-11 13:55:00
9:15 AM,41.9,41.9,100,30.06,3.0,Calm,Calm,-,N/A,,Overcast,0,2013-02-11 14:15:00
9:35 AM,42.3,42.3,100,30.06,2.5,Calm,Calm,-,N/A,,Overcast,0,2013-02-11 14:35:00
9:55 AM,42.4,42.4,100,30.06,1.5,Calm,Calm,-,N/A,Rain,Light Rain,0,2013-02-11 14:55:00
10:15 AM,43.0,43.0,100,30.04,1.2,South,3.5,-,N/A,Rain,Light Rain,180,2013-02-11 15:15:00
10:35 AM,43.2,43.2,100,30.04,1.2,Calm,Calm,-,N/A,Rain,Light Rain,0,2013-02-11 15:35:00
10:55 AM,43.7,43.7,100,30.04,1.5,Calm,Calm,-,N/A,,Overcast,0,2013-02-11 15:55:00
11:15 AM,45.0,45.0,100,30.03,1.5,Calm,Calm,-,N/A,,Overcast,0,2013-02-11 16:15:00
11:35 AM,45.7,45.7,100,30.01,1.2,Calm,Calm,-,N/A,,Overcast,0,2013-02-11 16:35:00
11:55 AM,46.8,46.8,100,30.01,1.2,Calm,Calm,-,N/A,,Overcast,0,2013-02-11 16:55:00
12:15 PM,48.2,48.2,100,30.01,1.5,WSW,5.8,-,N/A,,Overcast,240,2013-02-11 17:15:00
12:35 PM,48.9,48.9,100,29.99,1.5,SW,6.9,-,N/A,,Overcast,230,2013-02-11 17:35:00
12:55 PM,49.3,49.3,100,29.98,1.2,SW,9.2,-,N/A,,Overcast,230,2013-02-11 17:55:00
1:15 PM,50.0,50.0,100,29.96,1.2,WSW,4.6,-,N/A,,Overcast,240,2013-02-11 18:15:00
1:35 PM,50.2,50.2,100,29.93,1.5,WSW,4.6,-,N/A,,Overcast,250,2013-02-11 18:35:00
1:55 PM,50.9,50.9,100,29.95,2.5,West,5.8,-,N/A,,Overcast,260,2013-02-11 18:55:00
2:15 PM,51.8,51.8,100,29.95,7.0,WSW,8.1,-,N/A,,Overcast,250,2013-02-11 19:15:00
2:35 PM,52.0,51.8,99,29.96,7.0,West,8.1,-,N/A,,Overcast,260,2013-02-11 19:35:00
2:55 PM,52.3,51.8,98,29.95,7.0,SW,6.9,16.1,N/A,,Overcast,220,2013-02-11 19:55:00
3:15 PM,52.3,51.8,98,29.94,5.0,WSW,5.8,-,N/A,,Overcast,240,2013-02-11 20:15:00
3:35 PM,52.7,52.2,98,29.93,4.0,SW,5.8,-,N/A,,Overcast,230,2013-02-11 20:35:00
3:55 PM,52.9,52.3,98,29.94,4.0,Calm,Calm,-,N/A,,Overcast,0,2013-02-11 20:55:00
4:15 PM,53.1,52.7,99,29.93,4.0,SSW,4.6,-,N/A,,Overcast,210,2013-02-11 21:15:00
4:35 PM,53.1,52.7,99,29.94,4.0,WSW,4.6,-,N/A,,Overcast,240,2013-02-11 21:35:00
4:55 PM,53.4,52.7,97,29.93,4.0,SW,6.9,-,N/A,,Overcast,220,2013-02-11 21:55:00
5:55 PM,54.0,53.2,97,29.92,5.0,Calm,Calm,-,N/A,,Overcast,0,2013-02-11 22:55:00
6:15 PM,54.0,53.2,97,29.92,5.0,WSW,3.5,-,N/A,,Overcast,240,2013-02-11 23:15:00
6:35 PM,54.0,53.6,99,29.94,7.0,WSW,3.5,-,N/A,,Mostly Cloudy,250,2013-02-11 23:35:00
6:55 PM,54.1,53.6,98,29.93,7.0,WSW,3.5,-,N/A,,Scattered Clouds,250,2013-02-11 23:55:00
7:15 PM,53.8,53.2,98,29.94,7.0,WSW,4.6,-,N/A,,Scattered Clouds,250,2013-02-12 00:15:00
7:35 PM,53.8,53.6,99,29.95,7.0,WSW,5.8,-,N/A,,Clear,240,2013-02-12 00:35:00
7:55 PM,54.0,53.6,99,29.94,7.0,WSW,5.8,-,N/A,,Clear,240,2013-02-12 00:55:00
8:15 PM,54.0,53.6,99,29.94,7.0,WSW,4.6,-,N/A,,Clear,240,2013-02-12 01:15:00
8:35 PM,54.0,53.6,99,29.94,7.0,SW,5.8,-,N/A,,Clear,230,2013-02-12 01:35:00
8:55 PM,53.6,53.4,99,29.94,10.0,WSW,4.6,-,N/A,,Clear,240,2013-02-12 01:55:00
9:15 PM,53.8,53.4,99,29.94,10.0,WSW,6.9,-,N/A,,Clear,240,2013-02-12 02:15:00
9:35 PM,54.0,53.4,98,29.94,10.0,WSW,5.8,-,N/A,,Clear,240,2013-02-12 02:35:00
9:55 PM,53.8,52.9,97,29.93,10.0,SW,5.8,-,N/A,,Clear,220,2013-02-12 02:55:00
10:15 PM,53.2,52.7,98,29.94,10.0,SW,4.6,-,N/A,,Clear,230,2013-02-12 03:15:00
10:35 PM,52.7,52.0,97,29.94,10.0,Calm,Calm,-,N/A,,Clear,0,2013-02-12 03:35:00
10:55 PM,52.2,51.6,98,29.96,10.0,Calm,Calm,-,N/A,,Clear,0,2013-02-12 03:55:00
11:15 PM,51.1,50.5,98,29.96,10.0,SW,4.6,-,N/A,,Clear,230,2013-02-12 04:15:00
11:35 PM,50.9,49.3,94,29.96,10.0,WSW,6.9,-,N/A,,Clear,240,2013-02-12 04:35:00
11:55 PM,50.4,45.1,82,29.96,10.0,WSW,5.8,-,N/A,,Clear,250,2013-02-12 04:55:00